Flag for Germany Weather past 2 weeks in Fürstenwalde/Spree, Brandenburg, Germany

Now
57 °F

Partly sunny.


Feels Like: 57 °F
Forecast: 39 / 60 °F
Wind: 3 mph from North

Location: Lindenberg

Current Time: Apr 19, 2015 at 6:53:27 PM

Latest Report: Apr 19, 2015 at 6:00 PM


Visibility: 31 mi

Pressure: 30.16 "Hg

Humidity: 40%

Dew point: 33 °F

Location of Fürstenwalde/SpreeLocation

Historic Weather in Fürstenwalde/Spree — Graph

°F

Fürstenwalde/Spree temperature yesterday

Maximum temperature yesterday: 50 °F (at 4:00 PM)
Minimum temperature yesterday: 31 °F (at 6:00 AM)
Average temperature yesterday: 42 °F

Past Weeks' High & Low Weather Summary

 TemperatureHumidityPressure
High71 °F (Apr 11, 4:00 PM)100% (Apr 9, 6:00 AM)30.55 "Hg (Apr 9, 6:00 AM)
Low26 °F (Apr 5, 7:00 AM)27% (Apr 11, 4:00 PM)29.81 "Hg (Apr 15, 7:00 PM)
Average47 °F64%30.20 "Hg
* Reported Apr 4 4:00 PM — Apr 19 4:00 PM, Fürstenwalde/Spree, Weather by CustomWeather, © 2015

Note: Actual official high and low records may vary slightly from our data, if they occured in-between our weather recording intervals... More about our weather records

Advertising

Fürstenwalde/Spree weather history for previous 24 hours

 ConditionsComfort  
Time TempWeatherWind HumidityBarometerVisibility
4:00 PM
Sun, Apr 19
57 °FOvercast.3 mph38%30.18 "Hg31 mi
3:00 PM56 °FPartly sunny.5 mph41%30.19 "Hg31 mi
2:00 PM56 °FPartly sunny.3 mph43%30.19 "Hg31 mi
1:00 PM56 °FPartly sunny.5 mph40%30.18 "Hg28 mi
12:00 PM53 °FPartly sunny.3 mph43%30.20 "Hg28 mi
10:00 AM49 °FScattered clouds.1 mph48%30.21 "Hg22 mi
9:00 AM44 °FPassing clouds.1 mph72%30.21 "Hg16 mi
8:00 AM40 °FScattered clouds.1 mph73%30.20 "Hg16 mi
7:00 AM37 °FScattered clouds.2 mph74%30.19 "Hg19 mi
6:00 AM36 °FScattered clouds.3 mph77%30.19 "Hg25 mi
4:00 AM38 °FClear.2 mph70%30.19 "Hg28 mi
3:00 AM38 °FClear.2 mph69%30.20 "Hg31 mi
2:00 AM38 °FPassing clouds.1 mph70%30.21 "Hg31 mi
1:00 AM38 °FClear.1 mph70%30.21 "Hg31 mi
12:00 AM38 °FClear.1 mph71%30.22 "Hg31 mi
11:00 PM
Sat, Apr 18
38 °FClear.1 mph71%30.22 "Hg31 mi
10:00 PM40 °FClear.2 mph64%30.22 "Hg31 mi
9:00 PM42 °FPassing clouds.1 mph59%30.21 "Hg31 mi
8:00 PM46 °FPassing clouds.1 mph50%30.20 "Hg31 mi
7:00 PM50 °FScattered clouds.2 mph45%30.20 "Hg31 mi
6:00 PM50 °FScattered clouds.2 mph43%30.21 "Hg31 mi
Weather by CustomWeather, © 2015

See weather overviewHow to use our weather pages